Location: Oklahoma City
(35.4680°N, 97.5160°W)
Time: 15:53:03
(UTC-05:00)

ISS - Visible Passes

Search period start: 29 July 2014 00:00
Search period end: 08 August 2014 00:00
Orbit: 411 x 420 km, 51.6° (Epoch: 29 July)

Date Brightness Start Highest point End Pass type
(mag) Time Alt. Az. Time Alt. Az. Time Alt. Az.
29 Jul -0.2 05:57:58 10° NNW 06:00:08 16° NNE 06:02:17 10° ENE visible
30 Jul 0.1 05:09:59 10° N 05:11:04 11° NNE 05:12:09 10° NE visible
31 Jul -1.4 05:56:20 10° NNW 05:59:28 35° NE 06:02:34 10° ESE visible
01 Aug -0.6 05:07:49 10° NNW 05:10:30 22° NNE 05:13:11 10° E visible
01 Aug -2.4 21:47:49 10° SSW 21:50:16 28° SSE 21:50:16 28° SSE visible
02 Aug 0.0 04:19:29 10° N 04:21:28 15° NNE 04:23:28 10° ENE visible
02 Aug -3.3 05:55:10 10° NW 05:58:31 74° SW 06:01:51 10° SE visible
02 Aug -1.6 20:59:59 10° SSE 21:02:04 16° SE 21:04:10 10° E visible
02 Aug -2.0 22:35:21 10° WSW 22:38:31 40° NW 22:41:10 14° NNE visible
03 Aug 0.3 03:31:42 10° N 03:32:22 10° NNE 03:33:01 10° NNE visible
03 Aug -2.6 05:06:22 10° NW 05:09:41 56° NE 05:12:59 10° ESE visible
03 Aug -3.2 21:46:20 10° SW 21:49:38 78° NW 21:52:59 10° NE visible
03 Aug 0.2 23:25:24 10° NW 23:26:50 12° NNW 23:28:15 10° N visible
04 Aug -1.4 04:19:16 21° N 04:20:46 31° NE 04:23:48 10° E visible
04 Aug -2.0 05:54:42 10° WNW 05:57:20 22° SW 05:59:58 10° S visible
04 Aug -3.1 20:57:36 10° SSW 21:00:49 51° SE 21:04:04 10° ENE visible
04 Aug -0.3 22:35:25 10° WNW 22:37:44 17° NNW 22:40:04 10° NNE visible
05 Aug -1.7 05:10:21 22° SSE 05:10:21 22° SSE 05:11:46 10° SSE visible
05 Aug -1.0 21:45:50 10° W 21:48:43 27° NW 21:51:37 10° NNE visible
06 Aug -2.0 20:56:33 10° WSW 20:59:45 46° NW 21:02:59 10° NE visible
07 Aug -0.1 21:46:21 10° NW 21:48:00 13° NNW 21:49:38 10° N visible
